ASIASAT 5

Last updated on Thu Nov 21 2024 00:02:41 GMT+0000 (Coordinated Universal Time)

1 35696U 09042A 24325.64820606 -.00000306 00000+0 00000+0 0 9990 2 35696 0.0444 95.1370 0001505 140.9425 157.9664 1.00271778 55959
UTC large
Height (km)
Speed (km/s)
/
Latitude / Longitude
Inclination (degrees)
Orbital Period (minutes)
Azimuth
Elevation
Range (km)
Doppler Factor

Next 0 passes for location: London (51.5072 / 0.1276)

Sorry there are no passes over London.